"Pseudo-MPEC" for ST23K48

Created 2023 Dec 5 22:22:23 UT using Find_Orb

Click here for an explanation of pseudo-MPECs

 
 Astrometry: 
     ST23K48* C2023 11 152M7bFnAstrometryfrc%[G.wSx92;X)#b*C4^OFpGNactVPFsU\uU68
     ST23K48  C2023 11 15cYNr:WQw49;?7*#fPM3$5vRELy[[9ynA;g5Lr3`eN%X\hc0UAy,NU68
     ST23K48  C2023 11 15DX'bnbVG0QQghIN5(.k;redacted;DZXTiSSu'Q..nJJ#[U?2B-6U68
     ST23K48  C2023 11 15v5KYCNhP`vt9PoA'#)OYTy\i/!click!Q.7(D;A3icc)`7Bj-=K0U68
     ST23K48 KB2023 11 15G!DUTDc\EoD7wBS8d@[M^gu`W(X)mY^748qXSWqxHH@V:^vO2ZmS958
     ST23K48 KB2023 11 15V-1^?nQxRBfD:xm0qEXsf43J16k/jGqU`6#k5/4!SNTTud%AByaW958
     ST23K48 KB2023 11 15f1B)glFicUOX@igTD@\xNXbTS_S:ps%8'%o'nhere2\w2:rU'Lcx958
     ST23K48 KB2023 11 18PA;^Nkhpem.AugjV6#9gi-_EifEkOforwuJ8Zx8Kf.jYp2.8V?(YG15
     ST23K48 KB2023 11 18XoIeUexplanationHTAGyJDuN]/LO4l8%%.khG-([ex^*-,_NS8RG15

Station data:
(958) Observatoire de Dax  (N43.693324 W1.030390)  France.  Observer P.
   Dupouy. 0.32-m Schmidt-Cassegrain.
(G15) Magroforte Observatory, Alessandria  (N44.772005 E9.118300)  Italy.
   Observer A. De Pieri. 0.25-m f/6.7 Schmidt-Cassegrain + CCD.
(U68) JPL SynTrack Robotic Telescope, Auberry  (N37.070387 W119.412990)
   US/California.  Observers N. Saini, C. Zhai, R. Trahan, M. Zhan, M. Shao.
   0.28-m f/2.2 Schmidt + CCD.

Orbital elements:  ST23K48
   Perihelion 2023 Nov 5.84539 +/- 0.00677 TT = 20:17:21 (JD 2460254.34539)
Epoch 2023 Nov 18.0 TT = JDT 2460266.5   Earth MOID: 0.0105   Ma: 0.0003
M   8.35509467 +/- 0.0019           (J2000 ecliptic)             AutoNEOCP
n   0.68740138 +/- 0.000425         Peri.  347.16861 +/- 0.008
a   1.27153733 +/- 0.000524         Node    54.80720 +/- 0.00013
e   0.2157830 +/- 0.000318          Incl.    3.65112 +/- 0.0047
P   1.43/523.70d           H 28.45  G  0.15   U  7.5
q 0.99716111 +/- 7.23e-6    Q 1.54591354 +/- 0.00104
From 9 observations 2023 Nov. 15-18; mean residual 0".64
Residuals in arcseconds: 
231115 U68  .03-  .18-    231115 U68  .27-  .29+    231115 958  1.0+  .28+    
231115 U68  .01-  .06+    231115 958  .90-  1.2-    231118 G15  .98-  .78+    
231115 U68  .28+  .13-    231115 958  .06-  .86+    231118 G15  .98+  .77-    

Ephemerides (geocentric):
Date (UTC) HH   RA             Dec           delta  r     elong  mag " sig PA
---- --------  ------------   ------------  ------ ------ -----  --- --------
2023 12 05 22  06 41 07.176   +50 01 37.12  .04792 1.0248 144.5 23.3 8.49  59
2023 12 05 23  06 41 12.625   +50 02 06.06  .04801 1.0249 144.5 23.3 8.50  59
2023 12 06 00  06 41 18.043   +50 02 34.78  .04810 1.0250 144.5 23.3 8.51  59
2023 12 06 01  06 41 23.431   +50 03 03.29  .04819 1.0251 144.5 23.3 8.52  59
2023 12 06 02  06 41 28.787   +50 03 31.58  .04828 1.0251 144.5 23.3 8.52  59
2023 12 06 03  06 41 34.112   +50 03 59.66  .04837 1.0252 144.5 23.3 8.53  59
2023 12 06 04  06 41 39.407   +50 04 27.53  .04846 1.0253 144.5 23.3 8.54  59
2023 12 06 05  06 41 44.671   +50 04 55.18  .04855 1.0253 144.5 23.3 8.55  59
2023 12 06 06  06 41 49.905   +50 05 22.62  .04864 1.0254 144.5 23.4 8.56  59
2023 12 06 07  06 41 55.108   +50 05 49.85  .04873 1.0255 144.6 23.4 8.56  59
2023 12 06 08  06 42 00.281   +50 06 16.88  .04882 1.0256 144.6 23.4 8.57  59
2023 12 06 09  06 42 05.424   +50 06 43.69  .04891 1.0256 144.6 23.4 8.58  59
2023 12 06 10  06 42 10.537   +50 07 10.30  .04900 1.0257 144.6 23.4 8.59  59
2023 12 06 11  06 42 15.621   +50 07 36.70  .04909 1.0258 144.6 23.4 8.59  59
2023 12 06 12  06 42 20.674   +50 08 02.89  .04919 1.0259 144.6 23.4 8.60  59
2023 12 06 13  06 42 25.698   +50 08 28.88  .04928 1.0259 144.6 23.4 8.61  59
2023 12 06 14  06 42 30.693   +50 08 54.67  .04937 1.0260 144.6 23.4 8.61  59
2023 12 06 15  06 42 35.658   +50 09 20.26  .04946 1.0261 144.6 23.4 8.62  59
2023 12 06 16  06 42 40.594   +50 09 45.64  .04955 1.0262 144.7 23.4 8.63  59
2023 12 06 17  06 42 45.501   +50 10 10.82  .04964 1.0262 144.7 23.4 8.64  59
2023 12 06 18  06 42 50.379   +50 10 35.81  .04973 1.0263 144.7 23.4 8.64  59
2023 12 06 19  06 42 55.228   +50 11 00.59  .04982 1.0264 144.7 23.4 8.65  59
2023 12 06 20  06 43 00.048   +50 11 25.18  .04991 1.0265 144.7 23.4 8.66  59
2023 12 06 21  06 43 04.840   +50 11 49.57  .05000 1.0265 144.7 23.4 8.66  59
2023 12 06 22  06 43 09.603   +50 12 13.77  .05009 1.0266 144.7 23.4 8.67  59
2023 12 06 23  06 43 14.338   +50 12 37.77  .05018 1.0267 144.7 23.4 8.68  59
2023 12 07 00  06 43 19.045   +50 13 01.58  .05027 1.0268 144.7 23.4 8.68  59
2023 12 07 01  06 43 23.723   +50 13 25.19  .05036 1.0269 144.8 23.4 8.69  59
2023 12 07 02  06 43 28.374   +50 13 48.61  .05045 1.0269 144.8 23.4 8.70  59
2023 12 07 03  06 43 32.997   +50 14 11.84  .05054 1.0270 144.8 23.4 8.70  59
2023 12 07 04  06 43 37.591   +50 14 34.89  .05064 1.0271 144.8 23.4 8.71  59
2023 12 07 05  06 43 42.159   +50 14 57.74  .05073 1.0272 144.8 23.4 8.72  59
2023 12 07 06  06 43 46.698   +50 15 20.40  .05082 1.0272 144.8 23.4 8.72  59
2023 12 07 07  06 43 51.210   +50 15 42.87  .05091 1.0273 144.8 23.4 8.73  59
2023 12 07 08  06 43 55.695   +50 16 05.16  .05100 1.0274 144.9 23.4 8.73  59
2023 12 07 09  06 44 00.153   +50 16 27.26  .05109 1.0275 144.9 23.5 8.74  59
2023 12 07 10  06 44 04.583   +50 16 49.18  .05118 1.0275 144.9 23.5 8.75  59
2023 12 07 11  06 44 08.987   +50 17 10.91  .05127 1.0276 144.9 23.5 8.75  59
2023 12 07 12  06 44 13.364   +50 17 32.46  .05136 1.0277 144.9 23.5 8.76  59
2023 12 07 13  06 44 17.713   +50 17 53.82  .05145 1.0278 144.9 23.5 8.76  59
2023 12 07 14  06 44 22.037   +50 18 15.00  .05154 1.0278 144.9 23.5 8.77  59
2023 12 07 15  06 44 26.333   +50 18 36.01  .05164 1.0279 144.9 23.5 8.78  59
2023 12 07 16  06 44 30.604   +50 18 56.83  .05173 1.0280 145.0 23.5 8.78  59
2023 12 07 17  06 44 34.848   +50 19 17.47  .05182 1.0281 145.0 23.5 8.79  59
2023 12 07 18  06 44 39.066   +50 19 37.93  .05191 1.0282 145.0 23.5 8.79  59
2023 12 07 19  06 44 43.257   +50 19 58.22  .05200 1.0282 145.0 23.5 8.80  59
2023 12 07 20  06 44 47.423   +50 20 18.32  .05209 1.0283 145.0 23.5 8.80  59
2023 12 07 21  06 44 51.563   +50 20 38.25  .05218 1.0284 145.0 23.5 8.81  59